Simultaneous Nadir Overpasses (SNOs) Predictions

Prediction of SNOs between AURA and NPP Satellite Orbit:

Table of predicted SNOs for the next 14.0 days since TLE Epoch: 11/23/2024
Index Date (AURA) Time (AURA) Lat,Lon (AURA) SZA (AURA ) Date (NPP) Time (NPP) Lat,Lon (NPP) SZA (NPP ) Distance(km) Time Diff (sec)
1 11/23/2024 05:10:06 80.87, 16.05 109.07 11/23/2024 05:08:53 80.88, 16.17 109.10 2.21 73
2 11/23/2024 05:59:26 -80.92,-175.60 71.03 11/23/2024 05:59:35 -80.93,-175.48 71.05 2.26 9
3 11/25/2024 17:13:06 -80.90, 15.70 70.48 11/25/2024 17:12:09 -80.90, 15.84 70.46 2.43 57
4 11/25/2024 18:02:25 80.94,-176.01 109.44 11/25/2024 18:02:52 80.94,-176.09 109.44 1.52 27
5 11/28/2024 05:16:04 80.89, 14.85 110.02 11/28/2024 05:15:27 80.89, 14.76 110.06 1.47 37
6 11/28/2024 06:05:24 -80.94,-176.81 70.08 11/28/2024 06:06:09 -80.94,-176.82 70.10 0.48 45
7 11/30/2024 17:18:59 -80.92, 14.66 69.62 11/30/2024 17:18:42 -80.92, 14.71 69.62 0.77 17
8 11/30/2024 18:08:18 80.97,-177.07 110.30 11/30/2024 18:09:24 80.97,-176.91 110.24 2.88 66
9 12/03/2024 05:21:52 80.92, 13.95 110.78 12/03/2024 05:21:59 80.92, 13.78 110.80 3.10 7
10 12/05/2024 16:35:22 80.90,-154.74 111.18 12/05/2024 16:34:31 80.89,-154.87 111.23 2.37 51



Historial Predications of SNOs between AURA and NPP
